Weather in Gagarinskiy Khutor

Russia / Oryol Oblast     53°07′56″N   37°13′02″E
temp.,
°C
wind,
m/s
gust,
m/s
humid.,
%
clouds,
%
prec.,
mm/h
press.,
hPa
HPBL,
m
4 march, thu
thu400:00−1w51193100 0.1 1015672
03:00−3wsw7149399 0.1 1013390
06:00−3wsw7159385 0.0 1010382
09:00−2wsw8178962 0.0 1008579
12:000w8138677 0.0 1006823
15:000wsw6119488 0.0 1004871
18:00+1w41294100 0.0 1003687
21:00−1wnw41098100 0.2 1002632
5 march, fri
fri500:00−3w3997100 0.2 1003296
03:00−3nne3694100 0.3 1005233
06:00−5nnw2294100 0.1 100634
09:00−5nw249389 0.1 100898
12:00−3nw349020 0.0 1009312
15:00−2nw248427 0.0 1010494
18:00−5nw228966 0.0 101121
21:00−7n239080 0.0 101421
6 march, sat
sat600:00−9nne229069 0.0 101521
03:00−10ene118839 0.0 101621
06:00−11sw00880 0.0 101621
09:00−9ssw11901 0.0 101623
12:00−6ssw128499 0.0 1016265
15:00−4sw118398 0.0 1016413
18:00−7s119295 0.0 101721
21:00−7n579497 1.4 1019293
7 march, sun
sun700:00−12w339226 0.0 101928
03:00−11sw5109013 0.0 1017203
06:00−8sw8178258 0.0 1013550
09:00−6sw10197779 0.0 1009812
12:00−4wsw121991100 0.1 10051219
15:00−2wsw132091100 1.1 10011390
18:00−2wsw122185100 0.3 9991245
21:00−5w41190100 3.3 1001831
8 march, mon
mon800:00−7wsw6148367 0.0 1002368
03:00−7w7168450 0.0 1002697
06:00−9w6158682 0.0 1003568
09:00−9wnw6118872 0.1 1006925
12:00−8nw6884100 0.1 1008853
15:00−8nw5781100 0.1 10101019
18:00−11nw348759 0.0 101253
21:00−13wnw338749 0.0 101425